Regional Weather Roundup
Issued by NWS Jackson, KY

Home | Current Version | Previous Version | Graphics & Text | Print | Product List | Glossary On
Versions: 1 2 3 4 5 6 7 8 9 10 11 12 13 14 15 16 17 18 19 20 21 22 23 24 25 26 27 28 29 30 31 32 33 34 35 36 37 38 39 40 41 42 43 44 45 46 47 48 49 50
000
ASUS43 KJKL 031510
RWRJKL

EAST KENTUCKY HOURLY WEATHER ROUNDUP
NATIONAL WEATHER SERVICE JACKSON KY
1100 AM EDT SUN MAY 03 2015

NOTE: "FAIR" INDICATES FEW OR NO CLOUDS BELOW 12,000 FEET WITH
NO SIGNIFICANT WEATHER AND/OR OBSTRUCTIONS TO VISIBILITY.

* THESE REPORTS ARE NOT UNDER NWS QUALITY CONTROL AND MAY NOT
  REPORT WEATHER SUCH AS PRECIPITATION AND FOG.

KYZ079-080-083-085-087-088-110-112-115-119-120-031600
...EASTERN KENTUCKY...

CITY           SKY/WX    TMP DP  RH WIND       PRES   REMARKS
JACKSON        MOSUNNY   67  43  41 VRB5      30.18S
LONDON         SUNNY     68  42  38 S5        30.18R
SOMERSET*      SUNNY     64  46  52 CALM      30.18S
MONTICELLO*    MOSUNNY   70  50  49 CALM      30.19S
MIDDLESBORO*   SUNNY     64  47  54 CALM      30.20S
HARLAN APT*    MOSUNNY   66  41  39 CALM      30.19F
HAZARD APT*    SUNNY     68  45  42 S3        30.18
BLACK MTN*       N/A     59  37  44 W5          N/A
PIKEVILLE APT* SUNNY     64  45  48 S5        30.19S
BIG SANDY*     PTSUNNY   67  46  47 SW5       30.19R
MOREHEAD APT*  PTSUNNY   68  45  42 S6        30.19S
$$

KYZ035-036-041-042-044-050-067-078-099-031600
...CENTRAL KENTUCKY...

CITY           SKY/WX    TMP DP  RH WIND       PRES   REMARKS
MT STERLING*   SUNNY     70  46  43 S6        30.18S
FLEMING/MASON* SUNNY     70  50  49 S6        30.17S
DANVILLE*      MOSUNNY   70  50  49 S5        30.17S
RICHMOND*      MOSUNNY   70  45  40 SW6       30.16S
LEXINGTON      MOSUNNY   69  49  48 S7        30.16S
FRANKFORT      MOSUNNY   68  50  52 SE6       30.14S
$$

KYZ091>093-OHZ055-061-077-WVZ005-015-034-035-042-031600
...SOUTHERN OHIO/WEST VIRGINIA...

CITY           SKY/WX    TMP DP  RH WIND       PRES   REMARKS
COVINGTON      MOSUNNY   71  49  45 SW8       30.13F
COLUMBUS       PTSUNNY   66  48  52 S6        30.13S
DAYTON         PTSUNNY   69  48  47 S7        30.13F
WILMINGTON     MOSUNNY   70  46  42 S7        30.13F
HUNTINGTON     MOSUNNY   68  44  42 SW6       30.16S
CHARLESTON     MOSUNNY   70  45  40 CALM      30.17S
PINEVILLE*     MOSUNNY   69  42  37 MISG      30.25S
BECKLEY        MOSUNNY   67  33  28 VRB6      30.22S
BLUEFIELD      SUNNY     67  33  28 MISG      30.24R
$$

VAZ002-007-008-TNZ017-027-036-066-071-031600
...SOUTHWEST VIRGINIA/EAST TENNESSEE...

CITY           SKY/WX    TMP DP  RH WIND       PRES   REMARKS
WISE*          MOSUNNY   66  34  30 W7        30.23S
JONESVILLE*    MOSUNNY   66  41  39 CALM      30.22S
ABINGDON*      SUNNY     68  40  35 CALM      30.22S
BRISTOL        MOSUNNY   66  45  46 E3        30.21S
OAK RIDGE      SUNNY     68  47  46 SW3       30.20S
CROSSVILLE     MOSUNNY   70  44  39 VRB6      30.19S
NASHVILLE      MOSUNNY   72  51  47 CALM      30.15S
$$

...KEY TO REMARKS...
VSB - VISIBILITY IN MILES
WCI - WIND CHILL INDEX
HX  - HEAT INDEX

$$


USA.gov is the U.S. government's official web portal to all federal, state and local government web resources and services.